EW8889 Weather Reports


Display with metric or nautical units.
time (UTC)temp
F
wind
direction
speed
MPH
gust
MPH
rain 1hr
in
rain 24hr
in
rain mn
in
humidity
%
barometer
mb
20260505200849 53 74 4.0 10.0 0.00 0.06 0.05 75 1009.1
20260505190850 55 70 2.0 7.0 0.00 0.06 0.05 75 1008.5
20260505180849 56 40 2.0 8.0 0.00 0.06 0.05 77 1008.2
20260505170851 57 75 1.0 9.0 0.00 0.06 0.05 77 1008.5
20260505160849 56 48 4.0 9.0 0.00 0.06 0.05 78 1009.0
20260505150849 55 344 3.0 8.0 0.00 0.06 0.05 81 1009.2
20260505120847 53 50 3.0 10.0 0.00 0.06 0.05 85 1010.1
20260505110847 53 340 3.0 8.0 0.00 0.07 0.05 87 1010.5
20260505100846 51 55 3.0 9.0 0.00 0.07 0.05 91 1010.7
20260505093845 50 37 3.0 9.0 0.00 0.24 0.05 92 1010.7
20260505091013 50 58 3.0 8.0 0.00 0.24 0.05 93 1010.7
20260505070904 50 55 1.0 9.0 0.00 0.24 0.05 94 1010.8
20260505060845 50 60 2.0 9.0 0.00 0.24 0.05 94 1011.0
20260505053852 50 67 1.0 8.0 0.00 0.24 0.05 94 1010.7
20260505030845 52 356 3.0 8.0 0.02 0.23 0.04 93 1010.9
20260505020844 53 69 2.0 8.0 0.01 0.20 0.02 92 1010.7
20260505010844 54 34 1.0 9.0 0.00 0.20 0.01 92 1011.1
20260505000847 55 132 1.0 10.0 0.00 0.20 0.01 91 1011.2
20260504230845 57 111 1.0 5.0 0.01 0.19 0.00 92 1011.8
20260504230838 56 48 1.0 7.0 0.01 0.20 0.01 92 1011.6